TimeMST,TemperatureF,Dew PointF,Humidity,Sea Level PressureIn,VisibilityMPH,Wind Direction,Wind SpeedMPH,Gust SpeedMPH,PrecipitationIn,Events,Conditions,WindDirDegrees,DateUTC
12:10 AM,26.6,24.8,93,29.83,0.8,NNW,20.7,-,0.01,Snow,Light Snow,340,2013-02-24 07:10:00
12:16 AM,26.6,24.8,93,29.84,1.0,NNW,19.6,-,0.01,Snow,Light Snow,340,2013-02-24 07:16:00
12:23 AM,26.6,24.8,93,29.84,1.2,NNW,18.4,-,0.02,Snow,Light Snow,340,2013-02-24 07:23:00
12:44 AM,26.6,24.8,93,29.85,1.5,NNW,18.4,-,0.02,Snow,Light Snow,340,2013-02-24 07:44:00
12:53 AM,26.1,25.0,96,29.92,1.8,NNW,19.6,-,0.02,Snow,Light Snow,330,2013-02-24 07:53:00
1:12 AM,26.6,24.8,93,29.86,2.0,NNW,17.3,-,0.00,Snow,Light Snow,330,2013-02-24 08:12:00
1:23 AM,26.6,24.8,93,29.87,3.0,NNW,16.1,-,0.00,Snow,Light Snow,330,2013-02-24 08:23:00
1:32 AM,26.6,24.8,93,29.87,3.0,NNW,17.3,-,0.00,Snow,Light Snow,330,2013-02-24 08:32:00
1:40 AM,26.6,24.8,93,29.88,2.5,NNW,17.3,-,0.00,Snow,Light Snow,330,2013-02-24 08:40:00
1:53 AM,26.1,25.0,96,29.95,2.5,NNW,16.1,-,0.00,Snow,Light Snow,330,2013-02-24 08:53:00
2:03 AM,26.6,24.8,93,29.88,3.0,NNW,15.0,-,0.00,Snow,Light Snow,330,2013-02-24 09:03:00
2:53 AM,26.1,24.1,92,29.95,6.0,NW,13.8,-,0.00,Snow,Light Snow,320,2013-02-24 09:53:00
3:20 AM,26.6,24.8,93,29.89,7.0,NNW,12.7,-,0.00,Snow,Light Snow,330,2013-02-24 10:20:00
3:41 AM,26.6,24.8,93,29.89,10.0,NNW,15.0,-,0.00,,Overcast,330,2013-02-24 10:41:00
3:53 AM,26.1,24.1,92,29.97,10.0,NW,13.8,-,0.00,,Overcast,320,2013-02-24 10:53:00
4:53 AM,26.1,24.1,92,29.99,9.0,NNW,19.6,-,0.00,,Overcast,330,2013-02-24 11:53:00
5:53 AM,26.1,24.1,92,30.04,10.0,NNW,17.3,-,N/A,,Overcast,330,2013-02-24 12:53:00
6:53 AM,27.0,24.1,89,30.05,10.0,NNW,18.4,-,N/A,,Overcast,330,2013-02-24 13:53:00
7:15 AM,26.6,24.8,93,29.97,10.0,NW,17.3,-,N/A,,Overcast,320,2013-02-24 14:15:00
7:33 AM,26.6,24.8,93,29.98,10.0,NW,17.3,-,N/A,,Overcast,320,2013-02-24 14:33:00
7:53 AM,27.0,24.1,89,30.08,10.0,NNW,20.7,26.5,N/A,,Overcast,330,2013-02-24 14:53:00
8:30 AM,26.6,24.8,93,30.00,10.0,NNW,23.0,27.6,N/A,,Overcast,330,2013-02-24 15:30:00
8:53 AM,27.0,24.1,89,30.11,10.0,NNW,20.7,-,N/A,,Overcast,340,2013-02-24 15:53:00
9:37 AM,26.6,24.8,93,30.03,10.0,NNW,18.4,-,N/A,,Overcast,340,2013-02-24 16:37:00
9:53 AM,27.0,24.1,89,30.13,10.0,NNW,20.7,25.3,N/A,,Overcast,330,2013-02-24 16:53:00
10:04 AM,26.6,24.8,93,30.03,8.0,NNW,20.7,-,0.00,Snow,Light Snow,330,2013-02-24 17:04:00
10:53 AM,27.0,24.1,89,30.14,10.0,NNW,17.3,-,0.00,,Overcast,340,2013-02-24 17:53:00
11:02 AM,26.6,23.0,86,30.04,10.0,NNW,18.4,-,N/A,,Overcast,340,2013-02-24 18:02:00
11:43 AM,26.6,21.2,80,30.04,10.0,NNW,18.4,-,N/A,,Overcast,330,2013-02-24 18:43:00
11:53 AM,28.0,23.0,81,30.14,10.0,NNW,20.7,-,N/A,,Overcast,330,2013-02-24 18:53:00
12:53 PM,28.0,19.9,72,30.14,10.0,North,16.1,-,N/A,,Mostly Cloudy,350,2013-02-24 19:53:00
1:53 PM,28.0,21.0,75,30.14,10.0,NNW,15.0,-,N/A,,Mostly Cloudy,330,2013-02-24 20:53:00
2:10 PM,28.4,19.4,69,30.02,10.0,NW,15.0,-,N/A,,Scattered Clouds,320,2013-02-24 21:10:00
2:53 PM,28.9,19.9,69,30.13,10.0,NNW,13.8,-,N/A,,Scattered Clouds,340,2013-02-24 21:53:00
3:14 PM,30.2,19.4,64,30.03,10.0,NNW,15.0,-,N/A,,Mostly Cloudy,340,2013-02-24 22:14:00
3:39 PM,28.4,19.4,69,30.03,10.0,NW,11.5,-,N/A,,Scattered Clouds,320,2013-02-24 22:39:00
3:53 PM,28.9,19.9,69,30.13,10.0,NNW,11.5,-,N/A,,Partly Cloudy,330,2013-02-24 22:53:00
4:53 PM,28.0,19.0,69,30.15,10.0,NW,8.1,-,N/A,,Clear,310,2013-02-24 23:53:00
5:53 PM,19.0,15.1,85,30.17,10.0,West,8.1,-,N/A,,Clear,280,2013-02-25 00:53:00
6:53 PM,16.0,12.9,88,30.19,10.0,West,5.8,-,N/A,,Clear,260,2013-02-25 01:53:00
7:53 PM,12.0,10.0,92,30.20,10.0,WSW,4.6,-,N/A,,Clear,250,2013-02-25 02:53:00
8:53 PM,16.0,12.0,84,30.19,10.0,South,5.8,-,N/A,,Clear,190,2013-02-25 03:53:00
9:53 PM,19.0,14.0,81,30.19,10.0,SW,10.4,-,N/A,,Clear,220,2013-02-25 04:53:00
10:53 PM,17.1,12.9,84,30.18,10.0,South,5.8,-,N/A,,Clear,170,2013-02-25 05:53:00
11:53 PM,14.0,10.0,84,30.17,10.0,SSE,8.1,-,N/A,,Clear,160,2013-02-25 06:53:00